This is the latest recevied weather packets stored in our database for station/object N1HRK. If no packets are shown the sender has not sent any weather packets the latest 10 day(s).
| Time | Temp. | Humidity | Pressure | Rain* | Wind** | Luminosity | Snow |
|---|---|---|---|---|---|---|---|
| 1788152151 | 68° F | 94% | 762.8 mmHg | 0 in | - | - | - |
| 1788151551 | 69° F | 94% | 762.7 mmHg | 0.18 in | - | - | - |
| 1788150953 | 69° F | 94% | 762.7 mmHg | 0.54 in | - | - | - |
| 1788150353 | 69° F | 94% | 762.7 mmHg | 0.58 in | - | - | - |
| 1788149752 | 69° F | 93% | 762.7 mmHg | 0.63 in | - | - | - |
| 1788149152 | 69° F | 93% | 762.7 mmHg | 0.66 in | - | - | - |
| 1788148552 | 69° F | 93% | 762.7 mmHg | 0.7 in | - | - | - |
| 1788147952 | 70° F | 94% | 763 mmHg | 0.67 in | - | - | - |
| 1788147353 | 70° F | 92% | 762.9 mmHg | 0.42 in | - | - | - |
| 1788146752 | 71° F | 92% | 762.7 mmHg | 0.37 in | - | - | - |
| 1788146153 | 71° F | 92% | 762.7 mmHg | 0.32 in | - | - | - |
| 1788145550 | 70° F | 91% | 762.8 mmHg | 0.28 in | - | - | - |
| 1788144951 | 71° F | 90% | 762.7 mmHg | 0.25 in | - | - | - |
| 1788144351 | 71° F | 89% | 762.7 mmHg | 0.22 in | - | - | - |
| 1788143734 | 72° F | 88% | 762.8 mmHg | 0.14 in | - | - | - |
| 1788143703 | 72° F | 88% | 762.8 mmHg | 0.14 in | - | - | - |
| 1788143693 | 71° F | 87% | 762.9 mmHg | 0.06 in | - | - | - |
| 1788143289 | 71° F | 87% | 762.7 mmHg | 0 in | - | - | - |
| 1788142690 | 71° F | 86% | 762.7 mmHg | 0 in | - | - | - |
| 1788142091 | 71° F | 86% | 762.8 mmHg | 0 in | - | - | - |
| 1788141490 | 71° F | 86% | 763 mmHg | 0 in | - | - | - |
| 1788140889 | 72° F | 86% | 763 mmHg | 0 in | - | - | - |
| 1788140291 | 71° F | 85% | 762.8 mmHg | 0 in | - | - | - |
| 1788139689 | 71° F | 86% | 762.8 mmHg | 0 in | - | - | - |
| 1788139090 | 71° F | 86% | 762.9 mmHg | 0 in | - | - | - |
* Rain latest hour (hover to see other rain measurements)
** Current wind speed in m/s (hover to see current wind gust speed)